Flag Weather past 2 weeks in Puerto Plata, Dominican Republic

Now
73 °F

Passing clouds.


Feels Like: 70 °F
Forecast: 79 / 85 °F
Wind: No wind

Location: Puerto Plata International

Current Time: Nov 24, 2014 at 4:26:53 AM

Latest Report: Nov 24, 2014 at 2:00 AM


Visibility: N/A

Pressure: 30.01 "Hg

Humidity: 94%

Dew point: 72 °F

Location of Puerto PlataLocation

Historic Weather in Puerto Plata — Graph

°F

Puerto Plata temperature yesterday

Maximum temperature yesterday: 84 °F (at 12:00 PM)
Minimum temperature yesterday: 73 °F (at 2:00 AM)
Average temperature yesterday: 79 °F

Past Weeks' High & Low Weather Summary

 TemperatureHumidityPressure
High91 °F (Nov 10, 1:02 PM)100% (Nov 9, 8:00 AM)30.09 "Hg (Nov 9, 8:00 AM)
Low70 °F (Nov 14, 7:00 AM)59% (Nov 10, 2:00 PM)29.83 "Hg (Nov 9, 2:00 PM)
Average81 °F83%29.95 "Hg
* Reported Nov 9 2:00 AM — Nov 24 2:00 AM, Puerto Plata, Weather by CustomWeather, © 2014

Note: Actual official high and low records may vary slightly from our data, if they occured in-between our weather recording intervals... More about our weather records

Advertising

Puerto Plata weather history for previous 24 hours

 ConditionsComfort  
Time TempWeatherWind HumidityBarometerVisibility
2:00 AM
Nov 24
73 °FPassing clouds.No wind94%30.01 "HgN/A
11:00 PM
Nov 23
75 °FPassing clouds.No wind94%30.04 "HgN/A
8:00 PM77 °FPassing clouds.7 mph89%29.98 "HgN/A
7:00 PM79 °FPassing clouds.7 mph84%29.95 "HgN/A
6:00 PM82 °FScattered clouds.12 mph79%29.95 "HgN/A
5:00 PM82 °FScattered clouds.12 mph79%29.92 "HgN/A
4:00 PM82 °FPartly sunny.12 mph79%29.92 "HgN/A
3:00 PM82 °FPartly sunny.12 mph79%29.95 "HgN/A
2:00 PM84 °FPartly sunny.6 mph74%29.95 "HgN/A
1:00 PM84 °FPartly sunny.17 mph74%29.98 "HgN/A
12:00 PM84 °FPartly sunny.12 mph74%30.01 "HgN/A
11:00 AM82 °FPartly sunny.12 mph79%30.04 "HgN/A
10:00 AM82 °FScattered clouds.12 mph79%30.04 "HgN/A
9:00 AM79 °FScattered clouds.No wind84%30.04 "HgN/A
8:00 AM73 °FScattered clouds.No wind94%30.01 "HgN/A
7:00 AM73 °FScattered clouds.No wind94%29.98 "HgN/A
5:00 AM73 °FPassing clouds.No wind94%29.95 "HgN/A
Weather by CustomWeather, © 2014

See weather overviewHow to use our weather pages